Time,TemperatureF,DewpointF,PressureIn,WindDirection,WindDirectionDegrees,WindSpeedMPH,WindSpeedGustMPH,Humidity,HourlyPrecipIn,Conditions,Clouds,dailyrainin,SoftwareType,DateUTC
2013-03-14 00:00:00,66.7,58.6,30.06,East,80,1.0,3.0,75,0.00,,,0.00,meteohub,2013-03-14 10:00:00,
2013-03-14 00:05:00,66.6,58.5,30.06,ENE,78,1.0,3.0,75,0.00,,,0.00,meteohub,2013-03-14 10:05:00,
2013-03-14 00:10:00,66.4,58.6,30.06,East,89,0.0,3.0,76,0.00,,,0.00,meteohub,2013-03-14 10:10:00,
2013-03-14 00:15:00,66.4,58.6,30.06,ENE,73,1.0,3.0,76,0.00,,,0.00,meteohub,2013-03-14 10:15:00,
2013-03-14 00:21:00,66.6,58.8,30.05,East,87,2.0,3.0,76,0.00,,,0.00,meteohub,2013-03-14 10:21:00,
2013-03-14 00:26:00,66.4,58.6,30.05,East,89,2.0,3.0,76,0.00,,,0.00,meteohub,2013-03-14 10:26:00,
2013-03-14 00:31:00,66.4,58.6,30.04,East,94,2.0,3.0,76,0.00,,,0.00,meteohub,2013-03-14 10:31:00,
2013-03-14 00:36:00,66.4,58.6,30.04,East,84,2.0,3.0,76,0.00,,,0.00,meteohub,2013-03-14 10:36:00,
2013-03-14 00:42:00,66.6,58.8,30.04,ENE,78,1.0,3.0,76,0.00,,,0.00,meteohub,2013-03-14 10:42:00,
2013-03-14 00:47:00,66.6,58.8,30.04,ESE,108,1.0,3.0,76,0.00,,,0.00,meteohub,2013-03-14 10:47:00,
2013-03-14 00:52:00,66.6,58.8,30.04,East,92,2.0,3.0,76,0.00,,,0.00,meteohub,2013-03-14 10:52:00,
2013-03-14 00:57:00,66.4,58.6,30.04,East,84,2.0,3.0,76,0.00,,,0.00,meteohub,2013-03-14 10:57:00,
2013-03-14 01:02:00,66.4,58.6,30.04,East,88,2.0,3.0,76,0.00,,,0.00,meteohub,2013-03-14 11:02:00,
2013-03-14 01:07:00,66.4,58.6,30.04,ENE,75,2.0,3.0,76,0.00,,,0.00,meteohub,2013-03-14 11:07:00,
2013-03-14 01:12:00,66.4,58.6,30.04,ENE,67,2.0,3.0,76,0.00,,,0.00,meteohub,2013-03-14 11:12:00,
2013-03-14 01:17:00,66.4,58.6,30.04,ENE,72,2.0,3.0,76,0.00,,,0.00,meteohub,2013-03-14 11:17:00,
2013-03-14 01:22:00,66.4,58.6,30.04,ENE,70,1.0,3.0,76,0.00,,,0.00,meteohub,2013-03-14 11:22:00,
2013-03-14 01:27:00,66.6,58.5,30.04,East,79,0.0,3.0,75,0.00,,,0.00,meteohub,2013-03-14 11:27:00,
2013-03-14 01:32:00,66.4,58.3,30.04,ENE,70,2.0,3.0,75,0.00,,,0.00,meteohub,2013-03-14 11:32:00,
2013-03-14 01:37:00,66.4,58.6,30.04,ENE,78,1.0,2.0,76,0.00,,,0.00,meteohub,2013-03-14 11:37:00,
2013-03-14 01:42:00,66.4,58.6,30.03,ENE,72,1.0,2.0,76,0.00,,,0.00,meteohub,2013-03-14 11:42:00,
2013-03-14 01:47:00,66.7,58.6,30.04,ENE,72,1.0,2.0,75,0.00,,,0.00,meteohub,2013-03-14 11:47:00,
2013-03-14 01:53:00,66.6,58.5,30.03,ENE,74,2.0,2.0,75,0.00,,,0.00,meteohub,2013-03-14 11:53:00,
2013-03-14 01:58:00,66.4,58.3,30.03,East,91,1.0,2.0,75,0.00,,,0.00,meteohub,2013-03-14 11:58:00,
2013-03-14 02:03:00,66.4,58.6,30.03,East,89,1.0,2.0,76,0.00,,,0.00,meteohub,2013-03-14 12:03:00,
2013-03-14 02:08:00,66.7,59.0,30.03,ENE,71,0.0,2.0,76,0.00,,,0.00,meteohub,2013-03-14 12:08:00,
2013-03-14 02:14:00,66.9,58.8,30.03,ENE,70,2.0,2.0,75,0.00,,,0.00,meteohub,2013-03-14 12:14:00,
2013-03-14 02:19:00,66.7,59.0,30.02,ENE,68,2.0,2.0,76,0.00,,,0.00,meteohub,2013-03-14 12:19:00,
2013-03-14 02:24:00,66.7,59.0,30.03,ENE,68,0.0,2.0,76,0.00,,,0.00,meteohub,2013-03-14 12:24:00,
2013-03-14 02:29:00,66.6,58.8,30.03,ENE,67,2.0,2.0,76,0.00,,,0.00,meteohub,2013-03-14 12:29:00,
2013-03-14 02:35:00,66.6,58.8,30.04,ENE,64,1.0,2.0,76,0.00,,,0.00,meteohub,2013-03-14 12:35:00,
2013-03-14 02:40:00,66.6,58.8,30.03,NE,55,2.0,2.0,76,0.00,,,0.00,meteohub,2013-03-14 12:40:00,
2013-03-14 02:45:00,66.7,59.0,30.03,ENE,71,2.0,2.0,76,0.00,,,0.00,meteohub,2013-03-14 12:45:00,
2013-03-14 02:50:00,66.9,59.2,30.03,ENE,65,1.0,4.0,76,0.00,,,0.00,meteohub,2013-03-14 12:50:00,
2013-03-14 02:56:00,67.3,59.5,30.03,ENE,59,2.0,4.0,76,0.00,,,0.00,meteohub,2013-03-14 12:56:00,
2013-03-14 03:01:00,67.5,59.2,30.03,ENE,65,1.0,4.0,75,0.00,,,0.00,meteohub,2013-03-14 13:01:00,
2013-03-14 03:06:00,67.6,59.4,30.03,NE,53,1.0,3.0,75,0.00,,,0.00,meteohub,2013-03-14 13:06:00,
2013-03-14 03:12:00,67.8,59.2,30.02,NE,40,4.0,4.0,74,0.00,,,0.00,meteohub,2013-03-14 13:12:00,
2013-03-14 03:17:00,68.2,59.5,30.02,ENE,58,2.0,4.0,74,0.00,,,0.00,meteohub,2013-03-14 13:17:00,
2013-03-14 03:22:00,68.5,59.5,30.02,NE,49,3.0,5.0,73,0.00,,,0.00,meteohub,2013-03-14 13:22:00,
2013-03-14 03:27:00,68.5,59.5,30.02,NE,36,2.0,5.0,73,0.00,,,0.00,meteohub,2013-03-14 13:27:00,
2013-03-14 03:32:00,68.5,59.5,30.02,ENE,58,2.0,5.0,73,0.00,,,0.00,meteohub,2013-03-14 13:32:00,
2013-03-14 03:37:00,68.5,59.5,30.02,NE,46,0.0,4.0,73,0.00,,,0.00,meteohub,2013-03-14 13:37:00,
2013-03-14 03:43:00,68.7,59.4,30.02,ENE,64,1.0,4.0,72,0.00,,,0.00,meteohub,2013-03-14 13:43:00,
2013-03-14 03:48:00,68.7,59.4,30.02,NE,36,3.0,5.0,72,0.00,,,0.00,meteohub,2013-03-14 13:48:00,
2013-03-14 03:53:00,68.7,59.4,30.02,NE,51,2.0,5.0,72,0.00,,,0.00,meteohub,2013-03-14 13:53:00,
2013-03-14 03:59:00,68.7,59.4,30.02,ENE,73,1.0,5.0,72,0.00,,,0.00,meteohub,2013-03-14 13:59:00,
2013-03-14 04:04:00,68.7,59.4,30.01,ENE,66,1.0,5.0,72,0.00,,,0.00,meteohub,2013-03-14 14:04:00,
2013-03-14 04:09:00,68.5,59.2,30.01,ENE,70,0.0,5.0,72,0.00,,,0.00,meteohub,2013-03-14 14:09:00,
2013-03-14 04:14:00,68.4,59.4,30.02,NNE,33,0.0,5.0,73,0.00,,,0.00,meteohub,2013-03-14 14:14:00,
2013-03-14 04:19:00,68.4,59.4,30.02,NE,54,0.0,5.0,73,0.00,,,0.00,meteohub,2013-03-14 14:19:00,
2013-03-14 04:24:00,68.2,59.2,30.02,ENE,61,0.0,3.0,73,0.00,,,0.00,meteohub,2013-03-14 14:24:00,
2013-03-14 04:30:00,68.2,59.2,30.02,East,84,0.0,3.0,73,0.00,,,0.00,meteohub,2013-03-14 14:30:00,
2013-03-14 04:35:00,67.8,59.2,30.02,NW,325,1.0,3.0,74,0.00,,,0.00,meteohub,2013-03-14 14:35:00,
2013-03-14 04:40:00,67.5,59.2,30.02,NW,319,2.0,2.0,75,0.00,,,0.00,meteohub,2013-03-14 14:40:00,
2013-03-14 04:45:00,67.3,59.0,30.02,NNE,26,0.0,2.0,75,0.00,,,0.00,meteohub,2013-03-14 14:45:00,
2013-03-14 04:50:00,67.3,59.0,30.02,NNE,26,0.0,2.0,75,0.00,,,0.00,meteohub,2013-03-14 14:50:00,
2013-03-14 04:56:00,66.9,58.8,30.02,NNE,16,0.0,2.0,75,0.00,,,0.00,meteohub,2013-03-14 14:56:00,
2013-03-14 05:02:00,66.9,58.8,30.02,NNE,26,0.0,2.0,75,0.00,,,0.00,meteohub,2013-03-14 15:02:00,
2013-03-14 05:07:00,66.9,59.2,30.02,NE,36,0.0,2.0,76,0.00,,,0.00,meteohub,2013-03-14 15:07:00,
2013-03-14 05:12:00,66.7,58.6,30.02,NE,36,0.0,2.0,75,0.00,,,0.00,meteohub,2013-03-14 15:12:00,
2013-03-14 05:17:00,66.7,58.6,30.02,NE,36,0.0,2.0,75,0.00,,,0.00,meteohub,2013-03-14 15:17:00,
2013-03-14 05:22:00,66.9,58.8,30.02,East,80,1.0,2.0,75,0.00,,,0.00,meteohub,2013-03-14 15:22:00,
2013-03-14 05:27:00,66.9,58.3,30.02,East,81,0.0,3.0,74,0.00,,,0.00,meteohub,2013-03-14 15:27:00,
2013-03-14 05:32:00,66.9,58.8,30.02,NW,326,0.0,3.0,75,0.00,,,0.00,meteohub,2013-03-14 15:32:00,
2013-03-14 05:38:00,66.7,58.6,30.03,NW,326,0.0,3.0,75,0.00,,,0.00,meteohub,2013-03-14 15:38:00,
2013-03-14 05:43:00,66.9,58.8,30.04,SSW,208,0.0,1.0,75,0.00,,,0.00,meteohub,2013-03-14 15:43:00,
2013-03-14 05:48:00,66.9,58.8,30.03,ESE,120,0.0,1.0,75,0.00,,,0.00,meteohub,2013-03-14 15:48:00,
2013-03-14 05:53:00,67.3,59.5,30.03,ENE,74,2.0,2.0,76,0.00,,,0.00,meteohub,2013-03-14 15:53:00,
2013-03-14 05:58:00,67.3,59.0,30.03,ENE,70,0.0,2.0,75,0.00,,,0.00,meteohub,2013-03-14 15:58:00,
2013-03-14 06:03:00,67.3,59.5,30.03,ENE,73,1.0,3.0,76,0.00,,,0.00,meteohub,2013-03-14 16:03:00,
2013-03-14 06:08:00,67.3,59.9,30.03,ESE,108,2.0,3.0,77,0.00,,,0.00,meteohub,2013-03-14 16:08:00,
2013-03-14 06:13:00,67.6,60.3,30.04,East,93,1.0,3.0,77,0.00,,,0.00,meteohub,2013-03-14 16:13:00,
2013-03-14 06:19:00,67.8,60.3,30.04,East,94,1.0,3.0,77,0.00,,,0.00,meteohub,2013-03-14 16:19:00,
2013-03-14 06:24:00,67.8,59.9,30.04,East,94,1.0,3.0,76,0.00,,,0.00,meteohub,2013-03-14 16:24:00,
2013-03-14 06:29:00,67.8,59.9,30.04,East,84,1.0,2.0,76,0.00,,,0.00,meteohub,2013-03-14 16:29:00,
2013-03-14 06:34:00,67.6,60.3,30.04,East,82,2.0,2.0,77,0.00,,,0.00,meteohub,2013-03-14 16:34:00,
2013-03-14 06:39:00,67.6,60.3,30.04,East,82,1.0,2.0,77,0.00,,,0.00,meteohub,2013-03-14 16:39:00,
2013-03-14 06:45:00,67.6,60.6,30.04,ENE,70,1.0,2.0,78,0.00,,,0.00,meteohub,2013-03-14 16:45:00,
2013-03-14 06:50:00,67.6,60.6,30.04,ENE,69,1.0,2.0,78,0.00,,,0.00,meteohub,2013-03-14 16:50:00,
2013-03-14 06:55:00,67.5,60.4,30.03,ENE,71,2.0,2.0,78,0.00,,,0.00,meteohub,2013-03-14 16:55:00,
2013-03-14 07:00:00,67.3,60.6,30.03,ENE,71,0.0,2.0,79,0.00,,,0.00,meteohub,2013-03-14 17:00:00,
2013-03-14 07:06:00,67.5,60.8,30.04,ENE,71,1.0,2.0,79,0.00,,,0.00,meteohub,2013-03-14 17:06:00,
2013-03-14 07:12:00,67.5,60.8,30.04,ENE,72,2.0,2.0,79,0.00,,,0.00,meteohub,2013-03-14 17:12:00,
2013-03-14 07:17:00,67.6,61.2,30.04,ENE,75,2.0,2.0,80,0.00,,,0.00,meteohub,2013-03-14 17:17:00,
2013-03-14 07:22:00,67.8,61.3,30.04,ENE,75,1.0,2.0,80,0.00,,,0.00,meteohub,2013-03-14 17:22:00,
2013-03-14 07:27:00,68.2,61.7,30.04,ENE,75,1.0,2.0,80,0.00,,,0.00,meteohub,2013-03-14 17:27:00,
2013-03-14 07:33:00,68.5,61.7,30.04,ENE,74,0.0,2.0,79,0.00,,,0.00,meteohub,2013-03-14 17:33:00,
2013-03-14 07:38:00,68.9,62.1,30.04,ENE,74,0.0,1.0,79,0.00,,,0.00,meteohub,2013-03-14 17:38:00,
2013-03-14 07:43:00,69.1,62.2,30.04,ENE,73,0.0,2.0,79,0.00,,,0.00,meteohub,2013-03-14 17:43:00,
2013-03-14 07:49:00,69.3,62.4,30.04,ENE,74,0.0,2.0,79,0.00,,,0.00,meteohub,2013-03-14 17:49:00,
2013-03-14 07:54:00,69.6,62.8,30.04,ENE,73,0.0,2.0,79,0.00,,,0.00,meteohub,2013-03-14 17:54:00,
2013-03-14 07:59:00,70.2,63.3,30.04,ESE,110,0.0,1.0,79,0.00,,,0.00,meteohub,2013-03-14 17:59:00,
2013-03-14 08:04:00,70.5,63.3,30.04,ESE,106,0.0,2.0,78,0.00,,,0.00,meteohub,2013-03-14 18:04:00,
2013-03-14 08:09:00,71.1,63.5,30.04,ESE,106,0.0,2.0,77,0.00,,,0.00,meteohub,2013-03-14 18:09:00,
2013-03-14 08:14:00,71.2,63.7,30.04,West,263,1.0,2.0,77,0.00,,,0.00,meteohub,2013-03-14 18:14:00,
2013-03-14 08:20:00,71.6,63.7,30.04,West,263,0.0,1.0,76,0.00,,,0.00,meteohub,2013-03-14 18:20:00,
2013-03-14 08:25:00,71.6,63.0,30.05,WNW,298,1.0,2.0,74,0.00,,,0.00,meteohub,2013-03-14 18:25:00,
2013-03-14 08:30:00,72.0,63.1,30.05,WNW,287,1.0,2.0,74,0.00,,,0.00,meteohub,2013-03-14 18:30:00,
2013-03-14 08:36:00,72.0,63.7,30.05,West,274,2.0,3.0,75,0.00,,,0.00,meteohub,2013-03-14 18:36:00,
2013-03-14 08:41:00,72.0,63.1,30.05,WNW,294,0.0,3.0,74,0.00,,,0.00,meteohub,2013-03-14 18:41:00,
2013-03-14 08:46:00,72.1,63.3,30.05,SSW,211,1.0,3.0,74,0.00,,,0.00,meteohub,2013-03-14 18:46:00,
2013-03-14 08:51:00,72.1,63.0,30.06,West,279,1.0,2.0,73,0.00,,,0.00,meteohub,2013-03-14 18:51:00,
2013-03-14 08:57:00,72.0,62.8,30.05,WNW,296,1.0,2.0,73,0.00,,,0.00,meteohub,2013-03-14 18:57:00,
2013-03-14 09:02:00,72.0,62.8,30.06,WNW,297,1.0,2.0,73,0.00,,,0.00,meteohub,2013-03-14 19:02:00,
2013-03-14 09:07:00,72.1,63.3,30.06,WNW,297,3.0,3.0,74,0.00,,,0.00,meteohub,2013-03-14 19:07:00,
2013-03-14 09:12:00,72.0,63.1,30.06,WNW,284,0.0,3.0,74,0.00,,,0.00,meteohub,2013-03-14 19:12:00,
2013-03-14 09:17:00,72.0,63.1,30.06,WNW,293,2.0,3.0,74,0.00,,,0.00,meteohub,2013-03-14 19:17:00,
2013-03-14 09:22:00,72.0,63.1,30.06,WNW,298,3.0,3.0,74,0.00,,,0.00,meteohub,2013-03-14 19:22:00,
2013-03-14 09:27:00,72.0,63.7,30.06,WNW,294,3.0,4.0,75,0.00,,,0.00,meteohub,2013-03-14 19:27:00,
2013-03-14 09:32:00,71.8,63.5,30.06,WNW,288,3.0,4.0,75,0.00,,,0.00,meteohub,2013-03-14 19:32:00,
2013-03-14 09:37:00,71.8,63.5,30.07,WNW,297,5.0,6.0,75,0.00,,,0.00,meteohub,2013-03-14 19:37:00,
2013-03-14 09:42:00,71.6,63.0,30.07,NW,315,6.0,7.0,74,0.00,,,0.00,meteohub,2013-03-14 19:42:00,
2013-03-14 09:48:00,71.8,63.5,30.08,NW,309,2.0,7.0,75,0.00,,,0.00,meteohub,2013-03-14 19:48:00,
2013-03-14 09:53:00,71.8,63.0,30.08,WNW,298,3.0,6.0,74,0.00,,,0.00,meteohub,2013-03-14 19:53:00,
2013-03-14 09:58:00,72.0,63.1,30.08,WNW,300,2.0,6.0,74,0.00,,,0.00,meteohub,2013-03-14 19:58:00,
2013-03-14 10:03:00,72.0,62.8,30.08,WNW,302,2.0,6.0,73,0.00,,,0.00,meteohub,2013-03-14 20:03:00,
2013-03-14 10:08:00,72.0,62.8,30.08,NW,306,4.0,6.0,73,0.00,,,0.00,meteohub,2013-03-14 20:08:00,
2013-03-14 10:13:00,72.0,62.4,30.08,WNW,300,3.0,6.0,72,0.00,,,0.00,meteohub,2013-03-14 20:13:00,
2013-03-14 10:19:00,72.1,62.2,30.08,WNW,283,4.0,6.0,71,0.00,,,0.00,meteohub,2013-03-14 20:19:00,
2013-03-14 10:24:00,72.1,62.2,30.08,WNW,300,3.0,6.0,71,0.00,,,0.00,meteohub,2013-03-14 20:24:00,
2013-03-14 10:29:00,72.1,61.9,30.08,WNW,294,3.0,6.0,70,0.00,,,0.00,meteohub,2013-03-14 20:29:00,
2013-03-14 10:34:00,72.5,62.2,30.08,WNW,294,1.0,4.0,70,0.00,,,0.00,meteohub,2013-03-14 20:34:00,
2013-03-14 10:39:00,72.9,63.0,30.08,WNW,302,2.0,4.0,71,0.00,,,0.00,meteohub,2013-03-14 20:39:00,
2013-03-14 10:45:00,73.4,62.6,30.07,NW,309,1.0,4.0,69,0.00,,,0.00,meteohub,2013-03-14 20:45:00,
2013-03-14 10:50:00,73.9,62.8,30.07,NW,317,3.0,4.0,68,0.00,,,0.00,meteohub,2013-03-14 20:50:00,
2013-03-14 10:55:00,74.1,62.4,30.07,West,263,4.0,4.0,67,0.00,,,0.00,meteohub,2013-03-14 20:55:00,
2013-03-14 11:00:00,74.5,62.4,30.07,West,269,2.0,7.0,66,0.00,,,0.00,meteohub,2013-03-14 21:00:00,
2013-03-14 11:05:00,74.5,62.8,30.07,WNW,290,5.0,7.0,67,0.00,,,0.00,meteohub,2013-03-14 21:05:00,
2013-03-14 11:11:00,74.5,62.4,30.07,WNW,290,3.0,7.0,66,0.00,,,0.00,meteohub,2013-03-14 21:11:00,
2013-03-14 11:16:00,74.1,62.4,30.07,WNW,302,6.0,7.0,67,0.00,,,0.00,meteohub,2013-03-14 21:16:00,
2013-03-14 11:21:00,74.3,61.7,30.06,West,270,6.0,8.0,65,0.00,,,0.00,meteohub,2013-03-14 21:21:00,
2013-03-14 11:26:00,74.3,62.6,30.06,West,264,4.0,8.0,67,0.00,,,0.00,meteohub,2013-03-14 21:26:00,
2013-03-14 11:31:00,74.1,62.1,30.06,West,277,3.0,8.0,66,0.00,,,0.00,meteohub,2013-03-14 21:31:00,
2013-03-14 11:36:00,73.9,61.3,30.05,NW,316,0.0,6.0,65,0.00,,,0.00,meteohub,2013-03-14 21:36:00,
2013-03-14 11:42:00,74.7,62.1,30.05,West,280,4.0,6.0,65,0.00,,,0.00,meteohub,2013-03-14 21:42:00,
2013-03-14 11:47:00,75.2,61.7,30.05,WSW,253,6.0,6.0,63,0.00,,,0.00,meteohub,2013-03-14 21:47:00,
2013-03-14 11:52:00,74.8,61.9,30.05,West,278,3.0,8.0,64,0.00,,,0.00,meteohub,2013-03-14 21:52:00,
2013-03-14 11:58:00,74.7,62.1,30.04,West,273,3.0,8.0,65,0.00,,,0.00,meteohub,2013-03-14 21:58:00,
2013-03-14 12:03:00,74.1,62.1,30.04,WNW,297,3.0,8.0,66,0.00,,,0.00,meteohub,2013-03-14 22:03:00,
2013-03-14 12:08:00,74.1,63.0,30.04,West,277,4.0,8.0,68,0.00,,,0.00,meteohub,2013-03-14 22:08:00,
2013-03-14 12:13:00,74.1,63.0,30.04,West,274,5.0,8.0,68,0.00,,,0.00,meteohub,2013-03-14 22:13:00,
2013-03-14 12:18:00,74.7,63.0,30.04,NW,304,4.0,8.0,67,0.00,,,0.00,meteohub,2013-03-14 22:18:00,
2013-03-14 12:23:00,74.7,63.0,30.03,WSW,249,8.0,9.0,67,0.00,,,0.00,meteohub,2013-03-14 22:23:00,
2013-03-14 12:29:00,74.8,63.5,30.03,WSW,252,5.0,9.0,68,0.00,,,0.00,meteohub,2013-03-14 22:29:00,
2013-03-14 12:34:00,75.2,62.6,30.02,West,278,4.0,9.0,65,0.00,,,0.00,meteohub,2013-03-14 22:34:00,
2013-03-14 12:39:00,75.0,62.4,30.03,West,259,4.0,8.0,65,0.00,,,0.00,meteohub,2013-03-14 22:39:00,
2013-03-14 12:44:00,75.6,64.2,30.02,SW,226,6.0,7.0,68,0.00,,,0.00,meteohub,2013-03-14 22:44:00,
2013-03-14 12:49:00,75.9,63.3,30.01,West,271,2.0,7.0,65,0.00,,,0.00,meteohub,2013-03-14 22:49:00,
2013-03-14 12:55:00,76.3,63.7,30.01,WNW,286,5.0,8.0,65,0.00,,,0.00,meteohub,2013-03-14 22:55:00,
2013-03-14 13:00:00,76.3,65.3,30.01,SW,224,3.0,8.0,69,0.00,,,0.00,meteohub,2013-03-14 23:00:00,
2013-03-14 13:05:00,76.1,63.9,30.01,WSW,257,8.0,10.0,66,0.00,,,0.00,meteohub,2013-03-14 23:05:00,
2013-03-14 13:10:00,75.7,64.4,30.01,West,266,4.0,10.0,68,0.00,,,0.00,meteohub,2013-03-14 23:10:00,
2013-03-14 13:15:00,75.6,64.2,30.01,WSW,243,8.0,9.0,68,0.00,,,0.00,meteohub,2013-03-14 23:15:00,
2013-03-14 13:20:00,75.0,64.9,30.01,West,278,4.0,10.0,71,0.00,,,0.00,meteohub,2013-03-14 23:20:00,
2013-03-14 13:26:00,75.2,66.7,30.01,WSW,238,4.0,10.0,75,0.00,,,0.00,meteohub,2013-03-14 23:26:00,
2013-03-14 13:32:00,75.6,66.7,30.00,SE,139,5.0,10.0,74,0.00,,,0.00,meteohub,2013-03-14 23:32:00,
2013-03-14 13:37:00,75.9,67.1,30.00,WSW,242,6.0,9.0,74,0.00,,,0.00,meteohub,2013-03-14 23:37:00,
2013-03-14 13:42:00,75.7,68.0,30.00,West,266,4.0,9.0,77,0.00,,,0.00,meteohub,2013-03-14 23:42:00,
2013-03-14 13:48:00,75.9,67.5,30.00,SW,219,5.0,9.0,75,0.00,,,0.00,meteohub,2013-03-14 23:48:00,
2013-03-14 13:53:00,75.7,67.3,30.00,West,263,4.0,9.0,75,0.00,,,0.00,meteohub,2013-03-14 23:53:00,
2013-03-14 13:58:00,75.4,66.2,29.99,WSW,255,6.0,9.0,73,0.00,,,0.00,meteohub,2013-03-14 23:58:00,
2013-03-14 14:03:00,75.0,66.2,29.99,WNW,282,4.0,8.0,74,0.00,,,0.00,meteohub,2013-03-15 00:03:00,
2013-03-14 14:08:00,75.2,65.1,29.99,SW,234,6.0,8.0,71,0.00,,,0.00,meteohub,2013-03-15 00:08:00,
2013-03-14 14:13:00,76.1,65.1,29.99,WNW,291,5.0,8.0,69,0.00,,,0.00,meteohub,2013-03-15 00:13:00,
2013-03-14 14:18:00,76.8,64.9,29.98,WSW,239,3.0,9.0,67,0.00,,,0.00,meteohub,2013-03-15 00:18:00,
2013-03-14 14:23:00,77.0,65.7,29.99,WSW,253,7.0,9.0,68,0.00,,,0.00,meteohub,2013-03-15 00:23:00,
2013-03-14 14:29:00,77.2,63.7,29.99,WSW,249,6.0,10.0,63,0.00,,,0.00,meteohub,2013-03-15 00:29:00,
2013-03-14 14:34:00,77.2,64.6,29.99,WNW,300,6.0,10.0,65,0.00,,,0.00,meteohub,2013-03-15 00:34:00,
2013-03-14 14:39:00,76.6,62.6,29.99,WSW,250,6.0,10.0,62,0.00,,,0.00,meteohub,2013-03-15 00:39:00,
2013-03-14 14:44:00,76.5,63.9,29.98,SW,229,4.0,10.0,65,0.00,,,0.00,meteohub,2013-03-15 00:44:00,
2013-03-14 14:49:00,76.3,62.8,29.98,SW,214,3.0,8.0,63,0.00,,,0.00,meteohub,2013-03-15 00:49:00,
2013-03-14 14:55:00,76.3,64.0,29.98,SW,214,4.0,7.0,66,0.00,,,0.00,meteohub,2013-03-15 00:55:00,
2013-03-14 15:00:00,76.6,63.5,29.98,WNW,295,0.0,7.0,64,0.00,,,0.00,meteohub,2013-03-15 01:00:00,
2013-03-14 15:05:00,76.5,62.1,29.97,NNW,346,2.0,7.0,61,0.00,,,0.00,meteohub,2013-03-15 01:05:00,
2013-03-14 15:10:00,77.2,65.3,29.97,WSW,240,4.0,7.0,67,0.00,,,0.00,meteohub,2013-03-15 01:10:00,
2013-03-14 15:15:00,77.0,61.5,29.97,West,278,4.0,7.0,59,0.00,,,0.00,meteohub,2013-03-15 01:15:00,
2013-03-14 15:20:00,76.6,62.6,29.97,West,281,3.0,8.0,62,0.00,,,0.00,meteohub,2013-03-15 01:20:00,
2013-03-14 15:25:00,76.8,64.6,29.97,SW,225,4.0,8.0,66,0.00,,,0.00,meteohub,2013-03-15 01:25:00,
2013-03-14 15:30:00,76.6,65.7,29.97,SW,219,7.0,8.0,69,0.00,,,0.00,meteohub,2013-03-15 01:30:00,
2013-03-14 15:36:00,75.9,64.6,29.97,WSW,239,5.0,8.0,68,0.00,,,0.00,meteohub,2013-03-15 01:36:00,
2013-03-14 15:41:00,75.4,64.6,29.96,WSW,238,4.0,7.0,69,0.00,,,0.00,meteohub,2013-03-15 01:41:00,
2013-03-14 15:46:00,75.2,64.8,29.96,SSW,200,4.0,8.0,70,0.00,,,0.00,meteohub,2013-03-15 01:46:00,
2013-03-14 15:52:00,75.4,65.7,29.97,West,269,3.0,8.0,72,0.00,,,0.00,meteohub,2013-03-15 01:52:00,
2013-03-14 15:57:00,75.0,65.3,29.97,WSW,252,3.0,8.0,72,0.00,,,0.00,meteohub,2013-03-15 01:57:00,
2013-03-14 16:02:00,75.0,66.2,29.97,SW,219,7.0,8.0,74,0.00,,,0.00,meteohub,2013-03-15 02:02:00,
2013-03-14 16:07:00,75.0,66.6,29.97,West,263,3.0,7.0,75,0.00,,,0.00,meteohub,2013-03-15 02:07:00,
2013-03-14 16:12:00,74.8,66.0,29.98,WSW,256,5.0,7.0,74,0.00,,,0.00,meteohub,2013-03-15 02:12:00,
2013-03-14 16:17:00,74.7,65.8,29.98,SW,226,2.0,7.0,74,0.00,,,0.00,meteohub,2013-03-15 02:17:00,
2013-03-14 16:22:00,74.5,64.9,29.97,WSW,248,5.0,7.0,72,0.00,,,0.00,meteohub,2013-03-15 02:22:00,
2013-03-14 16:27:00,74.5,64.9,29.97,WSW,255,0.0,8.0,72,0.00,,,0.00,meteohub,2013-03-15 02:27:00,
2013-03-14 16:33:00,74.5,64.4,29.97,WNW,287,2.0,8.0,71,0.00,,,0.00,meteohub,2013-03-15 02:33:00,
2013-03-14 16:38:00,74.7,64.6,29.98,West,276,4.0,8.0,71,0.00,,,0.00,meteohub,2013-03-15 02:38:00,
2013-03-14 16:43:00,74.5,64.9,29.98,WSW,248,3.0,7.0,72,0.00,,,0.00,meteohub,2013-03-15 02:43:00,
2013-03-14 16:49:00,74.7,65.1,29.98,SSW,200,1.0,7.0,72,0.00,,,0.00,meteohub,2013-03-15 02:49:00,
2013-03-14 16:54:00,74.5,64.9,29.98,WSW,249,4.0,7.0,72,0.00,,,0.00,meteohub,2013-03-15 02:54:00,
2013-03-14 16:59:00,74.5,65.3,29.98,SW,231,3.0,4.0,73,0.00,,,0.00,meteohub,2013-03-15 02:59:00,
2013-03-14 17:04:00,74.3,65.5,29.98,WSW,250,2.0,5.0,74,0.00,,,0.00,meteohub,2013-03-15 03:04:00,
2013-03-14 17:09:00,74.5,65.7,29.99,WSW,243,2.0,5.0,74,0.00,,,0.00,meteohub,2013-03-15 03:09:00,
2013-03-14 17:14:00,74.1,65.3,29.99,West,273,2.0,5.0,74,0.00,,,0.00,meteohub,2013-03-15 03:14:00,
2013-03-14 17:20:00,73.9,65.5,29.99,West,261,3.0,5.0,75,0.00,,,0.00,meteohub,2013-03-15 03:20:00,
2013-03-14 17:25:00,73.9,65.5,29.99,SW,217,1.0,5.0,75,0.00,,,0.00,meteohub,2013-03-15 03:25:00,
2013-03-14 17:30:00,73.8,64.9,29.98,WSW,255,3.0,5.0,74,0.00,,,0.00,meteohub,2013-03-15 03:30:00,
2013-03-14 17:35:00,73.8,65.3,29.98,WSW,257,1.0,5.0,75,0.00,,,0.00,meteohub,2013-03-15 03:35:00,
2013-03-14 17:40:00,73.8,65.3,29.98,WNW,284,2.0,4.0,75,0.00,,,0.00,meteohub,2013-03-15 03:40:00,
2013-03-14 17:45:00,73.6,65.1,29.99,WSW,249,2.0,4.0,75,0.00,,,0.00,meteohub,2013-03-15 03:45:00,
2013-03-14 17:50:00,73.6,65.5,29.99,WSW,240,1.0,4.0,76,0.00,,,0.00,meteohub,2013-03-15 03:50:00,
2013-03-14 17:55:00,73.8,65.7,29.99,SW,218,0.0,4.0,76,0.00,,,0.00,meteohub,2013-03-15 03:55:00,
2013-03-14 18:00:00,73.8,65.7,29.99,West,274,1.0,4.0,76,0.00,,,0.00,meteohub,2013-03-15 04:00:00,
2013-03-14 18:01:00,73.8,65.7,29.99,West,274,2.0,3.0,76,0.00,,,0.00,meteohub,2013-03-15 04:01:00,
2013-03-14 18:02:00,73.8,65.7,29.99,SW,229,3.0,3.0,76,0.00,,,0.00,meteohub,2013-03-15 04:02:00,
2013-03-14 18:07:00,73.8,65.7,29.99,WSW,256,1.0,4.0,76,0.00,,,0.00,meteohub,2013-03-15 04:07:00,
2013-03-14 18:13:00,73.6,65.5,29.99,West,262,1.0,5.0,76,0.00,,,0.00,meteohub,2013-03-15 04:13:00,
2013-03-14 18:18:00,73.4,65.3,29.99,WSW,253,0.0,5.0,76,0.00,,,0.00,meteohub,2013-03-15 04:18:00,
2013-03-14 18:23:00,73.2,65.1,29.99,West,260,1.0,5.0,76,0.00,,,0.00,meteohub,2013-03-15 04:23:00,
2013-03-14 18:28:00,73.2,65.7,29.99,SW,233,2.0,3.0,77,0.00,,,0.00,meteohub,2013-03-15 04:28:00,
2013-03-14 18:34:00,73.2,65.7,29.99,WNW,295,2.0,3.0,77,0.00,,,0.00,meteohub,2013-03-15 04:34:00,
2013-03-14 18:39:00,73.0,65.5,29.99,WNW,284,2.0,3.0,77,0.00,,,0.00,meteohub,2013-03-15 04:39:00,
2013-03-14 18:44:00,73.0,65.5,29.99,West,269,0.0,3.0,77,0.00,,,0.00,meteohub,2013-03-15 04:44:00,
2013-03-14 18:49:00,73.0,65.8,29.99,SW,217,0.0,3.0,78,0.00,,,0.00,meteohub,2013-03-15 04:49:00,
2013-03-14 18:54:00,73.0,65.8,30.00,WSW,238,1.0,2.0,78,0.00,,,0.00,meteohub,2013-03-15 04:54:00,
2013-03-14 19:00:00,72.9,65.7,29.99,SSW,205,0.0,2.0,78,0.00,,,0.00,meteohub,2013-03-15 05:00:00,
2013-03-14 19:05:00,72.9,65.7,29.99,SSW,202,0.0,2.0,78,0.00,,,0.00,meteohub,2013-03-15 05:05:00,
2013-03-14 19:10:00,72.9,65.7,29.99,SSW,202,0.0,1.0,78,0.00,,,0.00,meteohub,2013-03-15 05:10:00,
2013-03-14 19:16:00,72.9,65.7,29.99,SW,217,0.0,1.0,78,0.00,,,0.00,meteohub,2013-03-15 05:16:00,
2013-03-14 19:21:00,72.7,65.8,29.99,WSW,240,0.0,1.0,79,0.00,,,0.00,meteohub,2013-03-15 05:21:00,
2013-03-14 19:26:00,72.7,65.8,29.99,WSW,255,1.0,1.0,79,0.00,,,0.00,meteohub,2013-03-15 05:26:00,
2013-03-14 19:31:00,72.7,65.8,29.99,SW,228,0.0,2.0,79,0.00,,,0.00,meteohub,2013-03-15 05:31:00,
2013-03-14 19:36:00,72.5,65.7,29.99,SSW,211,0.0,2.0,79,0.00,,,0.00,meteohub,2013-03-15 05:36:00,
2013-03-14 19:41:00,72.3,65.8,29.99,SSW,211,0.0,2.0,80,0.00,,,0.00,meteohub,2013-03-15 05:41:00,
2013-03-14 19:46:00,72.3,65.8,30.00,WNW,284,1.0,2.0,80,0.00,,,0.00,meteohub,2013-03-15 05:46:00,
2013-03-14 19:51:00,72.3,65.8,30.00,WSW,246,3.0,3.0,80,0.00,,,0.00,meteohub,2013-03-15 05:51:00,
2013-03-14 19:57:00,72.3,65.8,30.00,West,263,0.0,3.0,80,0.00,,,0.00,meteohub,2013-03-15 05:57:00,
2013-03-14 20:02:00,72.3,65.8,30.00,SW,226,0.0,3.0,80,0.00,,,0.00,meteohub,2013-03-15 06:02:00,
2013-03-14 20:07:00,72.1,65.7,30.00,WSW,253,0.0,3.0,80,0.00,,,0.00,meteohub,2013-03-15 06:07:00,
2013-03-14 20:12:00,72.1,65.7,30.00,WSW,253,0.0,1.0,80,0.00,,,0.00,meteohub,2013-03-15 06:12:00,
2013-03-14 20:18:00,72.1,65.7,30.00,West,271,0.0,1.0,80,0.00,,,0.00,meteohub,2013-03-15 06:18:00,
2013-03-14 20:23:00,72.1,66.0,30.00,West,260,1.0,2.0,81,0.00,,,0.00,meteohub,2013-03-15 06:23:00,
2013-03-14 20:29:00,72.1,66.0,30.01,West,267,0.0,2.0,81,0.00,,,0.00,meteohub,2013-03-15 06:29:00,
2013-03-14 20:34:00,72.1,66.0,30.01,ESE,109,1.0,2.0,81,0.00,,,0.00,meteohub,2013-03-15 06:34:00,
2013-03-14 20:39:00,72.1,66.0,30.00,ESE,118,0.0,2.0,81,0.00,,,0.00,meteohub,2013-03-15 06:39:00,
2013-03-14 20:44:00,72.1,66.0,30.00,WNW,290,1.0,2.0,81,0.00,,,0.00,meteohub,2013-03-15 06:44:00,
2013-03-14 20:49:00,72.3,66.2,30.00,SE,127,0.0,2.0,81,0.00,,,0.00,meteohub,2013-03-15 06:49:00,
2013-03-14 20:54:00,72.1,65.7,30.01,SSE,152,0.0,2.0,80,0.00,,,0.00,meteohub,2013-03-15 06:54:00,
2013-03-14 21:00:00,72.0,65.1,30.01,SW,217,0.0,2.0,79,0.00,,,0.00,meteohub,2013-03-15 07:00:00,
2013-03-14 21:05:00,72.0,65.1,30.01,SSE,156,1.0,2.0,79,0.00,,,0.00,meteohub,2013-03-15 07:05:00,
2013-03-14 21:10:00,72.0,64.8,30.00,ESE,102,0.0,2.0,78,0.00,,,0.00,meteohub,2013-03-15 07:10:00,
2013-03-14 21:15:00,72.1,64.6,30.00,ESE,102,0.0,2.0,77,0.00,,,0.00,meteohub,2013-03-15 07:15:00,
2013-03-14 21:20:00,72.1,64.6,30.00,ESE,102,0.0,2.0,77,0.00,,,0.00,meteohub,2013-03-15 07:20:00,
2013-03-14 21:26:00,72.1,64.2,30.01,ESE,102,1.0,1.0,76,0.00,,,0.00,meteohub,2013-03-15 07:26:00,
2013-03-14 21:31:00,72.1,64.6,30.01,East,101,0.0,1.0,77,0.00,,,0.00,meteohub,2013-03-15 07:31:00,
2013-03-14 21:36:00,72.1,64.6,30.01,ESE,103,0.0,1.0,77,0.00,,,0.00,meteohub,2013-03-15 07:36:00,
2013-03-14 21:42:00,72.0,64.4,30.01,ESE,102,0.0,1.0,77,0.00,,,0.00,meteohub,2013-03-15 07:42:00,
2013-03-14 21:47:00,72.0,64.4,30.02,ESE,120,0.0,1.0,77,0.00,,,0.00,meteohub,2013-03-15 07:47:00,
2013-03-14 21:52:00,72.0,64.4,30.02,ESE,106,1.0,1.0,77,0.00,,,0.00,meteohub,2013-03-15 07:52:00,
2013-03-14 21:57:00,72.0,64.4,30.02,ESE,105,1.0,1.0,77,0.00,,,0.00,meteohub,2013-03-15 07:57:00,
2013-03-14 22:02:00,72.0,64.4,30.02,ESE,114,2.0,2.0,77,0.00,,,0.00,meteohub,2013-03-15 08:02:00,
2013-03-14 22:07:00,72.1,64.2,30.01,ESE,111,1.0,2.0,76,0.00,,,0.00,meteohub,2013-03-15 08:07:00,
2013-03-14 22:12:00,72.1,64.2,30.01,ESE,114,1.0,3.0,76,0.00,,,0.00,meteohub,2013-03-15 08:12:00,
2013-03-14 22:17:00,72.1,64.2,30.02,ESE,122,0.0,3.0,76,0.00,,,0.00,meteohub,2013-03-15 08:17:00,
2013-03-14 22:22:00,72.1,64.2,30.01,SE,145,1.0,3.0,76,0.00,,,0.00,meteohub,2013-03-15 08:22:00,
2013-03-14 22:27:00,72.1,64.2,30.01,SE,146,1.0,3.0,76,0.00,,,0.00,meteohub,2013-03-15 08:27:00,
2013-03-14 22:32:00,72.3,63.9,30.01,SE,141,1.0,3.0,75,0.00,,,0.00,meteohub,2013-03-15 08:32:00,
2013-03-14 22:37:00,72.3,63.9,30.01,SE,144,0.0,3.0,75,0.00,,,0.00,meteohub,2013-03-15 08:37:00,
2013-03-14 22:42:00,72.3,63.9,30.01,ESE,120,3.0,3.0,75,0.00,,,0.00,meteohub,2013-03-15 08:42:00,
2013-03-14 22:47:00,72.5,64.0,30.01,SSW,210,0.0,4.0,75,0.00,,,0.00,meteohub,2013-03-15 08:47:00,
2013-03-14 22:52:00,72.5,64.0,30.01,SSE,166,0.0,4.0,75,0.00,,,0.00,meteohub,2013-03-15 08:52:00,
2013-03-14 22:57:00,72.5,64.0,30.00,SSE,148,0.0,4.0,75,0.00,,,0.00,meteohub,2013-03-15 08:57:00,
2013-03-14 23:02:00,72.3,63.9,30.00,SSE,148,1.0,1.0,75,0.00,,,0.00,meteohub,2013-03-15 09:02:00,
2013-03-14 23:08:00,72.3,63.9,30.00,SE,132,1.0,2.0,75,0.00,,,0.00,meteohub,2013-03-15 09:08:00,
2013-03-14 23:13:00,72.1,63.9,30.00,SSE,163,0.0,2.0,75,0.00,,,0.00,meteohub,2013-03-15 09:13:00,
2013-03-14 23:18:00,72.0,63.7,30.00,South,172,0.0,2.0,75,0.00,,,0.00,meteohub,2013-03-15 09:18:00,
2013-03-14 23:23:00,72.0,64.0,30.00,SE,145,1.0,2.0,76,0.00,,,0.00,meteohub,2013-03-15 09:23:00,
2013-03-14 23:28:00,71.8,63.9,30.00,SSW,208,1.0,2.0,76,0.00,,,0.00,meteohub,2013-03-15 09:28:00,
2013-03-14 23:34:00,71.8,63.9,30.00,SE,137,1.0,3.0,76,0.00,,,0.00,meteohub,2013-03-15 09:34:00,
2013-03-14 23:39:00,71.6,63.7,29.99,SE,138,2.0,3.0,76,0.00,,,0.00,meteohub,2013-03-15 09:39:00,
2013-03-14 23:44:00,71.4,63.9,29.99,SE,131,1.0,3.0,77,0.00,,,0.00,meteohub,2013-03-15 09:44:00,
2013-03-14 23:49:00,71.2,63.7,29.99,ESE,105,2.0,3.0,77,0.00,,,0.00,meteohub,2013-03-15 09:49:00,
2013-03-14 23:54:00,71.2,63.7,29.99,ESE,108,1.0,3.0,77,0.00,,,0.00,meteohub,2013-03-15 09:54:00,